Weather History for LIRA - March, 2013

Change the Weather History Date:

Tuesday, March 19, 2013

  Actual Average Record
Temperature  
Mean Temperature 50 °F -  
Max Temperature 55 °F 63 °F 66 °F (2012)
Min Temperature 44 °F 44 °F 37 °F (2003)
Degree Days  
Heating Degree Days 16    
Moisture  
Dew Point 43 °F    
Average Humidity 77    
Maximum Humidity 93    
Minimum Humidity 62    
Precipitation  
Precipitation 0.00 in 0.09 in - ()
Sea Level Pressure  
Sea Level Pressure 29.73 in    
Wind  
Wind Speed 7 mph ()    
Max Wind Speed 14 mph    
Max Gust Speed -    
Visibility 6.2 miles    
Events      
Averages and records for this station are not official NWS values.
T = Trace of Precipitation, MM = Missing Value Source: Averaged Metar Reports

Daily Weather History Graph

Daily Weather History Graph

Search for Another Location

Airport or City:

Trip Planner

Search our weather history database for the weather conditions in past years. The results will help you decide how hot, cold, wet, or windy it might be!

Date:

Astronomy

Mar. 19, 2013 Rise Set
Actual Time 6:14 AM CET 6:20 PM CET
Civil Twilight 5:46 AM CET 6:48 PM CET
Nautical Twilight 5:14 AM CET 7:21 PM CET
Astronomical Twilight 4:41 AM CET 7:54 PM CET
Moon 10:45 AM CET (3/19) 12:59 AM CET (3/19)
Length of Visible Light 13h 01m
Length of Day
12h 06m
Waxing Crescent, 48% of the Moon is Illuminated
Mar 19
Waxing Crescent
Mar 19
First Quarter
Mar 27
Full
Apr 3
Last Quarter
Apr 10
New

Hourly Weather History & Observations

Time (CET) Temp. Windchill Dew Point Humidity Pressure Visibility Wind Dir Wind Speed Gust Speed Precip Events Conditions
12:15 AM 46.4 °F 43.5 °F 44.6 °F 93% 29.65 in 6.2 mi South 5.8 mph - N/A   Partly Cloudy
12:45 AM 46.4 °F 44.3 °F 42.8 °F 87% 29.65 in 6.2 mi SSW 4.6 mph - N/A   Partly Cloudy
1:15 AM 46.4 °F 43.5 °F 42.8 °F 87% 29.65 in 6.2 mi SSW 5.8 mph - N/A   Partly Cloudy
1:45 AM 48.2 °F - 42.8 °F 82% 29.65 in 6.2 mi SW 9.2 mph - N/A   Partly Cloudy
2:15 AM 48.2 °F - 42.8 °F 82% 29.65 in 6.2 mi SW 9.2 mph - N/A   Partly Cloudy
2:45 AM 48.2 °F - 42.8 °F 82% 29.65 in 6.2 mi SW 8.1 mph - N/A   Partly Cloudy
3:15 AM 48.2 °F - 42.8 °F 82% 29.65 in 6.2 mi SW 10.4 mph - N/A   Partly Cloudy
3:45 AM 48.2 °F - 44.6 °F 87% 29.65 in 6.2 mi SW 11.5 mph - N/A   Partly Cloudy
4:15 AM 48.2 °F - 42.8 °F 82% 29.65 in 6.2 mi SW 9.2 mph - N/A   Partly Cloudy
4:45 AM 48.2 °F - 42.8 °F 82% 29.65 in 6.2 mi SW 10.4 mph - N/A   Partly Cloudy
5:15 AM 48.2 °F - 42.8 °F 82% 29.68 in 6.2 mi SW 9.2 mph - N/A   Partly Cloudy
5:45 AM 48.2 °F - 42.8 °F 82% 29.68 in 6.2 mi SW 8.1 mph - N/A   Partly Cloudy
6:15 AM 48.2 °F - 42.8 °F 82% 29.68 in 6.2 mi SW 9.2 mph - N/A   Partly Cloudy
6:45 AM 46.4 °F 43.5 °F 42.8 °F 87% 29.68 in 6.2 mi SSW 5.8 mph - N/A   Partly Cloudy
7:15 AM 48.2 °F - 42.8 °F 82% 29.71 in 6.2 mi SW 8.1 mph - N/A   Partly Cloudy
7:45 AM 50.0 °F - 44.6 °F 82% 29.71 in 6.2 mi WSW 6.9 mph - N/A   Partly Cloudy
8:15 AM 50.0 °F - 44.6 °F 82% 29.71 in 6.2 mi WSW 8.1 mph - N/A   Partly Cloudy
8:45 AM 53.6 °F - 44.6 °F 72% 29.74 in 6.2 mi WSW 8.1 mph - N/A   Partly Cloudy
9:15 AM 53.6 °F - 44.6 °F 72% 29.74 in 6.2 mi WSW 9.2 mph - N/A   Partly Cloudy
9:45 AM 53.6 °F - 42.8 °F 67% 29.74 in 6.2 mi WSW 11.5 mph - N/A   Scattered Clouds
10:15 AM 53.6 °F - 44.6 °F 72% 29.74 in 6.2 mi WSW 10.4 mph - N/A   Scattered Clouds
10:45 AM 53.6 °F - 42.8 °F 67% 29.74 in 6.2 mi WSW 9.2 mph - N/A   Scattered Clouds
11:15 AM 55.4 °F - 44.6 °F 67% 29.77 in 6.2 mi WSW 10.4 mph - N/A   Scattered Clouds
11:45 AM 55.4 °F - 42.8 °F 63% 29.77 in 6.2 mi WSW 13.8 mph - N/A   Scattered Clouds
12:15 PM 55.4 °F - 44.6 °F 67% 29.77 in 6.2 mi West 10.4 mph - N/A   Mostly Cloudy
12:45 PM 55.4 °F - 44.6 °F 67% 29.77 in 6.2 mi WSW 9.2 mph - N/A   Mostly Cloudy
1:15 PM 55.4 °F - 44.6 °F 67% 29.77 in 6.2 mi WSW 10.4 mph - N/A   Mostly Cloudy
1:45 PM 55.4 °F - 42.8 °F 63% 29.77 in 6.2 mi West 10.4 mph - N/A   Mostly Cloudy
2:15 PM 55.4 °F - 42.8 °F 63% 29.77 in 6.2 mi West 10.4 mph - N/A   Mostly Cloudy
2:45 PM 55.4 °F - 44.6 °F 67% 29.77 in 6.2 mi West 9.2 mph - N/A   Mostly Cloudy
3:15 PM 55.4 °F - 44.6 °F 67% 29.77 in 6.2 mi West 6.9 mph - N/A   Mostly Cloudy
3:45 PM 55.4 °F - 42.8 °F 63% 29.77 in 6.2 mi West 8.1 mph - N/A   Mostly Cloudy
4:15 PM 55.4 °F - 42.8 °F 63% 29.77 in 6.2 mi West 8.1 mph - N/A   Scattered Clouds
4:45 PM 53.6 °F - 41.0 °F 62% 29.77 in 6.2 mi WSW 5.8 mph - N/A   Scattered Clouds
5:15 PM 53.6 °F - 41.0 °F 62% 29.77 in 6.2 mi West 5.8 mph - N/A   Scattered Clouds
5:45 PM 53.6 °F - 42.8 °F 67% 29.77 in 6.2 mi SW 5.8 mph - N/A   Scattered Clouds
6:15 PM 51.8 °F - 41.0 °F 67% 29.77 in 6.2 mi SSW 3.5 mph - N/A   Scattered Clouds
6:45 PM 50.0 °F - 42.8 °F 76% 29.77 in 6.2 mi South 3.5 mph - N/A   Partly Cloudy
7:15 PM 50.0 °F - 42.8 °F 76% 29.77 in 6.2 mi SSE 4.6 mph - N/A   Partly Cloudy
7:45 PM 46.4 °F 42.9 °F 42.8 °F 87% 29.77 in 6.2 mi ESE 6.9 mph - N/A   Partly Cloudy
8:15 PM 46.4 °F 42.9 °F 42.8 °F 87% 29.77 in 6.2 mi ESE 6.9 mph - N/A   Partly Cloudy
8:45 PM 46.4 °F - 42.8 °F 87% 29.77 in 6.2 mi SE 2.3 mph - N/A   Partly Cloudy
9:15 PM 46.4 °F - 42.8 °F 87% 29.77 in - SSW 2.3 mph - N/A   Clear
9:45 PM 44.6 °F - 41.0 °F 87% 29.77 in - SSE 2.3 mph - N/A   Clear
10:15 PM 46.4 °F 43.5 °F 42.8 °F 87% 29.77 in - SE 5.8 mph - N/A   Clear
10:45 PM 48.2 °F - 42.8 °F 82% 29.77 in - SSE 6.9 mph - N/A   Clear
11:15 PM 44.6 °F 41.4 °F 41.0 °F 87% 29.77 in - SE 5.8 mph - N/A   Clear
11:45 PM 46.4 °F 45.2 °F 42.8 °F 87% 29.77 in - East 3.5 mph - N/A   Clear